Cherokee, IA

10:30 PM CDT on July 24, 2016 (GMT -0500)
Cherokee Municipal

Weather History for KCKP - November, 2012

Change the Weather History Date:

Thursday, November 29, 2012

  Actual Average Record
Temperature  
Mean Temperature 38 °F -  
Max Temperature 53 °F 34 °F 59 °F (2014)
Min Temperature 23 °F 16 °F -5 °F (1959)
Degree Days  
Heating Degree Days 27    
Moisture  
Dew Point 24 °F    
Average Humidity 64    
Maximum Humidity 83    
Minimum Humidity 33    
Precipitation  
Precipitation 0.00 in - - ()
Sea Level Pressure  
Sea Level Pressure 29.98 in    
Wind  
Wind Speed 2 mph (ESE)    
Max Wind Speed 10 mph    
Max Gust Speed -    
Visibility 9 miles    
Events      
Averages and records for this station are not official NWS values.
T = Trace of Precipitation, MM = Missing Value Source: NWS Daily Summary

Daily Weather History Graph

Daily Weather History Graph

Search for Another Location

Airport or City:

Trip Planner

Search our weather history database for the weather conditions in past years. The results will help you decide how hot, cold, wet, or windy it might be!

Date:

Astronomy

Nov. 29, 2012 Rise Set
Actual Time 7:31 AM CST 4:49 PM CST
Civil Twilight 6:59 AM CST 5:21 PM CST
Nautical Twilight 6:24 AM CST 5:56 PM CST
Astronomical Twilight 5:50 AM CST 6:30 PM CST
Moon 5:53 PM CST (11/29) 8:18 AM CST (11/29)
Length of Visible Light 10h 21m
Length of Day
9h 18m
Full, 99% of the Moon is Illuminated
Nov 29
Full
Dec 6
Last Quarter
Dec 13
New
Dec 19
First Quarter
Dec 28
Full

Hourly Weather History & Observations

Time (CST) Temp. Windchill Dew Point Humidity Pressure Visibility Wind Dir Wind Speed Gust Speed Precip Events Conditions
12:15 AM 33.8 °F 27.7 °F 21.7 °F 61% 30.05 in 10.0 mi South 6.9 mph - N/A   Clear
12:35 AM 32.0 °F 27.5 °F 22.1 °F 67% 30.04 in 10.0 mi South 4.6 mph - N/A   Clear
12:55 AM 30.7 °F - 22.1 °F 70% 30.04 in 10.0 mi Calm Calm - N/A   Clear
1:15 AM 30.9 °F 26.2 °F 22.3 °F 70% 30.03 in 10.0 mi South 4.6 mph - N/A   Clear
1:35 AM 31.5 °F 28.1 °F 23.0 °F 71% 30.03 in 10.0 mi South 3.5 mph - N/A   Clear
1:55 AM 31.8 °F - 23.4 °F 71% 30.03 in 10.0 mi Calm Calm - N/A   Clear
2:35 AM 31.6 °F 25.1 °F 24.3 °F 74% 30.03 in 10.0 mi SSE 6.9 mph - N/A   Clear
2:55 AM 29.5 °F - 20.8 °F 70% 30.02 in 10.0 mi Calm Calm - N/A   Clear
3:15 AM 26.8 °F - 21.2 °F 79% 30.02 in 7.0 mi Calm Calm - N/A   Clear
3:35 AM 29.5 °F - 23.4 °F 78% 30.02 in 10.0 mi Calm Calm - N/A   Clear
3:55 AM 28.4 °F - 22.6 °F 79% 30.01 in 10.0 mi Calm Calm - N/A   Clear
4:15 AM 28.0 °F - 22.6 °F 80% 30.01 in 10.0 mi Calm Calm - N/A   Clear
4:35 AM 27.1 °F - 21.4 °F 79% 30.01 in 10.0 mi Calm Calm - N/A   Clear
4:55 AM 26.6 °F - 21.4 °F 81% 30.01 in 7.0 mi Calm Calm - N/A   Clear
5:15 AM 26.8 °F - 21.2 °F 79% 30.01 in 7.0 mi Calm Calm - N/A   Clear
5:35 AM 24.8 °F - 19.2 °F 79% 30.01 in 10.0 mi Calm Calm - N/A   Clear
6:15 AM 23.9 °F - 19.0 °F 82% 30.01 in 7.0 mi Calm Calm - N/A   Clear
6:35 AM 24.8 °F - 20.1 °F 82% 30.01 in 7.0 mi Calm Calm - N/A   Clear
6:55 AM 24.8 °F - 19.8 °F 81% 30.01 in 7.0 mi Calm Calm - N/A   Clear
7:15 AM 24.8 °F - 20.3 °F 83% 30.01 in 7.0 mi Calm Calm - N/A   Clear
7:35 AM 24.3 °F - 19.2 °F 81% 30.01 in 7.0 mi Calm Calm - N/A   Clear
7:55 AM 23.0 °F - 18.3 °F 82% 30.01 in 5.0 mi Calm Calm - N/A   Haze
8:15 AM 23.2 °F - 18.7 °F 83% 30.01 in 5.0 mi Calm Calm - N/A   Clear
8:35 AM 25.9 °F - 21.2 °F 82% 30.01 in 5.0 mi Calm Calm - N/A   Haze
8:55 AM 27.7 °F - 22.3 °F 80% 30.01 in 7.0 mi Calm Calm - N/A   Clear
9:15 AM 29.8 °F - 23.7 °F 78% 30.00 in 7.0 mi Calm Calm - N/A   Clear
9:35 AM 32.0 °F - 24.3 °F 73% 30.01 in 7.0 mi Calm Calm - N/A   Clear
10:15 AM 37.6 °F - 26.8 °F 65% 30.01 in 10.0 mi Calm Calm - N/A   Clear
10:35 AM 41.0 °F - 27.7 °F 59% 30.02 in 10.0 mi Calm Calm - N/A   Clear
10:55 AM 42.4 °F 40.7 °F 27.7 °F 56% 30.01 in 10.0 mi SSE 3.5 mph - N/A   Clear
11:15 AM 43.2 °F - 27.5 °F 54% 30.00 in 10.0 mi Calm Calm - N/A   Clear
11:35 AM 44.8 °F - 27.5 °F 51% 29.99 in 10.0 mi Calm Calm - N/A   Clear
11:55 AM 46.4 °F - 27.3 °F 47% 29.99 in 10.0 mi Calm Calm - N/A   Clear
12:15 PM 47.1 °F - 27.0 °F 46% 29.97 in 10.0 mi Calm Calm - N/A   Clear
12:35 PM 48.7 °F - 27.0 °F 43% 29.96 in 10.0 mi Calm Calm - N/A   Clear
12:55 PM 49.5 °F - 26.6 °F 41% 29.96 in 10.0 mi Calm Calm - N/A   Clear
1:15 PM 50.5 °F - 26.4 °F 39% 29.96 in 10.0 mi WNW 3.5 mph - N/A   Clear
1:35 PM 51.6 °F - 26.2 °F 37% 29.96 in 10.0 mi NNW 3.5 mph - N/A   Clear
1:55 PM 52.2 °F - 25.9 °F 36% 29.94 in 10.0 mi Calm Calm - N/A   Clear
2:35 PM - - - N/A% 29.93 in - North - - N/A   Unknown
2:55 PM 53.2 °F - 25.0 °F 33% 29.92 in 10.0 mi Calm Calm - N/A   Clear
3:15 PM 53.6 °F - 24.8 °F 33% 29.92 in 10.0 mi ESE 3.5 mph - N/A   Clear
3:35 PM 53.6 °F - 24.6 °F 33% 29.93 in 10.0 mi SE 4.6 mph - N/A   Clear
3:55 PM 52.5 °F - 24.8 °F 34% 29.94 in 10.0 mi SE 3.5 mph - N/A   Clear
4:15 PM 51.8 °F - 25.3 °F 36% 29.93 in 10.0 mi ESE 3.5 mph - N/A   Clear
4:35 PM 49.3 °F - 24.8 °F 38% 29.92 in 10.0 mi East 4.6 mph - N/A   Clear
4:55 PM 44.1 °F 42.5 °F 24.8 °F 47% 29.92 in 10.0 mi ESE 3.5 mph - N/A   Clear
5:15 PM 41.7 °F 38.0 °F 24.4 °F 50% 29.92 in 10.0 mi East 5.8 mph - N/A   Clear
5:35 PM 39.9 °F - 24.3 °F 54% 29.94 in 10.0 mi Calm Calm - N/A   Clear
5:55 PM 40.1 °F 36.1 °F 25.0 °F 55% 29.94 in 10.0 mi ENE 5.8 mph - N/A   Clear
6:15 PM 36.7 °F - 24.6 °F 62% 29.95 in 10.0 mi Calm Calm - N/A   Clear
6:35 PM 39.2 °F - 25.7 °F 58% 29.96 in 10.0 mi Calm Calm - N/A   Clear
6:55 PM 37.4 °F - 25.2 °F 61% 29.96 in 10.0 mi Calm Calm - N/A   Clear
7:15 PM 36.7 °F - 26.1 °F 65% 29.96 in 7.0 mi Calm Calm - N/A   Clear
7:35 PM 37.4 °F - 26.1 °F 64% 29.96 in 10.0 mi Calm Calm - N/A   Clear
7:55 PM 36.7 °F - 25.7 °F 64% 29.96 in 10.0 mi Calm Calm - N/A   Clear
8:15 PM 37.2 °F - 25.7 °F 63% 29.97 in 10.0 mi Calm Calm - N/A   Clear
8:35 PM 36.5 °F 33.9 °F 26.2 °F 66% 29.96 in 7.0 mi East 3.5 mph - N/A   Clear
8:55 PM 37.2 °F 30.0 °F 27.1 °F 67% 29.93 in 10.0 mi East 10.4 mph - N/A   Clear
9:15 PM 37.6 °F - 27.1 °F 66% 29.96 in 10.0 mi Calm Calm - N/A   Clear
9:35 PM 37.6 °F - 27.3 °F 66% 29.96 in 10.0 mi Calm Calm - N/A   Clear
9:55 PM 36.0 °F 33.3 °F 27.0 °F 70% 29.96 in 10.0 mi NNE 3.5 mph - N/A   Clear
10:15 PM 35.8 °F - 27.1 °F 71% 29.95 in 10.0 mi Calm Calm - N/A   Clear
10:35 PM 32.9 °F - 26.1 °F 76% 29.96 in 10.0 mi Calm Calm - N/A   Clear
10:55 PM 33.4 °F 30.4 °F 26.8 °F 77% 29.96 in 10.0 mi NE 3.5 mph - N/A   Clear
11:15 PM 33.8 °F - 26.6 °F 75% 29.95 in 10.0 mi Calm Calm - N/A   Clear
11:35 PM 33.4 °F - 27.0 °F 77% 29.94 in 10.0 mi Calm Calm - N/A   Clear
11:55 PM 33.8 °F - 26.6 °F 75% 29.93 in 10.0 mi Calm Calm - N/A   Clear